Lexington Weather

Lexington, Massachusetts, USA

25°F
1/21/2021 10:22am 
  • Lexington Conditions: Clear
  • Temperature: 25.0°F / -3.9°CWarmer 1.8°F than last hour.
  • Dew Point: 13.1°FIncreased 0.7°Fsince last hour.
  • Relative Humidity: 60%Decreased 3.0% since last hour.
  • Wind: Calm, 10-min avg: Calm, gust: 1 mph
  • Barometer: 29.78 inRising 0.02  inHg/hr Rising Slowly
  • Visibility: 10 miles
  • Snow Today: 0.0 in
  •   

Regional Weather Roundup
for Boston / Norton, MA

        
000
ASUS41 KBOX 141404
RWRBOX

REGIONAL WEATHER ROUNDUP
NATIONAL WEATHER SERVICE BOSTON/NORTON MA
900 AM EST THU JAN 14 2021

NOTE:  "FAIR" INDICATES FEW OR NO CLOUDS BELOW 12,000 FEET WITH NO 
SIGNIFICANT WEATHER AND/OR OBSTRUCTIONS TO VISIBILITY.

MAZALL-141500-
EASTERN MASSACHUSETTS
  
CITY           SKY/WX    TMP DP  RH WIND       PRES   REMARKS
BOSTON         CLOUDY    36  28  73 SW6       29.91R WCI  31          
BEVERLY        CLOUDY    33  28  81 CALM      29.89R                  
LAWRENCE       PTSUNNY   33  26  75 S3        29.90R                  
BEDFORD        CLOUDY    32  27  81 CALM      29.88R                  
BLUE HILL        N/A     35  28  75 SW10      29.86R WCI  27          
NORWOOD        CLOUDY    35  28  75 CALM      29.90R FOG              
MARSHFIELD     PTSUNNY   34  32  93 CALM      29.90R                  
PLYMOUTH       LGT RAIN  36  30  79 CALM      29.89R                  
TAUNTON        LGT RAIN  35  30  82 CALM      29.89R                  
NEW BEDFORD    PTSUNNY   37  31  78 CALM      29.88S                  
$$

MAZALL-141500-
CAPE COD AND THE ISLANDS
  
CITY           SKY/WX    TMP DP  RH WIND       PRES   REMARKS
FALMOUTH       MOSUNNY   37  30  75 CALM      29.89R                  
HYANNIS        PTSUNNY   41  37  86 CALM      29.88S                  
CHATHAM        PTSUNNY   42  35  76 CALM      29.91R                  
PROVINCETOWN   LGT RAIN  40  35  83 CALM      29.92R                  
NANTUCKET      PTSUNNY   43  39  86 E3        29.89F                  
MARTHAS VNYRD  PTSUNNY   43  39  86 CALM      29.88F                  
$$
 
MAZALL-141500-
CENTRAL AND WESTERN MASSACHUSETTS
  
CITY           SKY/WX    TMP DP  RH WIND       PRES   REMARKS
WORCESTER      LGT SNOW  31  25  78 SW6       29.85R WCI  25          
FITCHBURG      CLOUDY    32  27  81 SE3       29.88R HAZE             
ORANGE         LGT SNOW  30  26  85 CALM      29.87R FOG              
SPRINGFIELD    LGT SNOW  32  29  89 CALM      29.87R FOG              
WESTFIELD      LGT SNOW  30  29  96 CALM      29.88R VSB 1            
NORTH ADAMS    CLOUDY    31  25  78 VRB3      29.84R                  
PITTSFIELD     LGT SNOW  29  25  85 CALM      29.81R FOG              
$$
 
RIZALL-141500-
RHODE ISLAND
  
CITY           SKY/WX    TMP DP  RH WIND       PRES   REMARKS
PROVIDENCE     LGT RAIN  38  31  76 N5        29.89R                  
NEWPORT        PTSUNNY   42  37  82 CALM      29.87S HAZE             
BLOCK ISLAND   CLOUDY    44  40  85 W3        29.87F                  
SMITHFIELD     LGT RAIN  34  31  88 CALM      29.89R                  
WESTERLY       PTSUNNY   34  30  85 CALM      29.88S FOG              
$$
 
CTZALL-141500-
CONNECTICUT
  
CITY           SKY/WX    TMP DP  RH WIND       PRES   REMARKS
BRADLEY INTL   LGT SNOW  33  29  85 N3        29.88R FOG              
HARTFORD       CLOUDY    36  29  75 CALM      29.88S HAZE             
BRIDGEPORT     PTSUNNY   38  33  82 CALM      29.87R HAZE             
DANBURY        PTSUNNY   34  28  79 CALM      29.86S HAZE             
GROTON         PTSUNNY   38  33  82 NE3       29.87S HAZE             
NEW HAVEN      CLOUDY    38  34  85 CALM      29.86S FOG              
CHESTER        FAIR      37  34  87 MISG      29.86S FOG              
MERIDEN        CLOUDY    37  30  75 CALM      29.87S                  
WILLIMANTIC    CLOUDY    32  27  81 N3        29.88S                  
OXFORD         CLOUDY    35  31  85 NW3       29.85S                  
$$

MEZ002-015-021-024-NHZ003-005-008-011-012-014-VTZ005-008-141500-
NORTHERN NEW ENGLAND
  
CITY           SKY/WX    TMP DP  RH WIND       PRES   REMARKS
PORTLAND ME    CLOUDY    32  25  75 W3        29.88R                  
BANGOR ME      MOSUNNY   28  24  85 CALM      29.87R                  
CONCORD NH     CLOUDY    30  24  78 CALM      29.87R                  
MANCHESTER NH  CLOUDY    31  24  75 SW3       29.86R                  
NASHUA NH      CLOUDY    32  30  92 CALM      29.88S                  
PORTSMOUTH NH  CLOUDY    32  26  80 CALM      29.87R                  
JAFFREY NH     PTSUNNY   29  24  82 CALM      29.84R                  
KEENE NH       CLOUDY    29  26  89 CALM      29.87R                  
BURLINGTON VT  CLOUDY    35  25  66 S5        29.82R WCI  31          
MT. WASHINGTON FOG       16  16 100 W24         N/A  VSB 1/8 WCI  -3  
$$

NYZ052-076-141500-
EASTERN NEW YORK
  
CITY           SKY/WX    TMP DP  RH WIND       PRES   REMARKS
ALBANY         CLOUDY    32  26  78 SE7       29.84R WCI  26          
NEW YORK CITY  PTSUNNY   43  32  65 N3        29.85S                  
$$
 
ANZALL-141500-
MARINE OBSERVATIONS
  
STATION/POSITION TIME  TEMP    WIND        PRES    VSBY  WAVE
                       AIR SEA DIR/SP/G                  HT/PER
                 (UTC) (F)     (DEG/KT/KT) (MB)    (MI)  (FT/S)
BOSTON BUOY      1340   38 43  230/  8/ 10 1012.9R
BUZZARDS BAY     1300          220/  7/  8 1012.7R
NANTUCKET SOUND  1350      41  170/  6/  6   N/A           1
MASS BAY-STELLWA 1304   38     250/  8/  8 1010.9R  1 7/8  1/ 3
ISLE OF SHOALS   1300   35     260/  6/  7 1011.3R
S OF BLOCK IS    1326      47                N/A           3/ 5
$$

......................KEY.........................
  SKY/WX - SKY CONDITION/PRESENT WEATHER
  TMP    - TEMPERATURE IN FAHRENHEIT
  DWPT   - DEWPOINT IN FAHRENHEIT
  RH     - RELATIVE HUMIDITY IN PERCENT
  WIND   - DIRECTION AND SPEED IN MPH
  PRES   - MEAN SEA LEVEL PRESSURE IN INCHES OF HG
  WCI    - WIND CHILL INDEX
  VSB    - VISIBILITY IN MILES
  HX     - HEAT INDEX
  TC     - TEMPERATURE IN CELSIUS
  VRB    - VARIABLE WIND DIRECTION
  N/A    - NOT AVAILABLE
  
      

Other recent Regional Weather Roundups

Thu Jan 21, 9:04am

Thu Jan 21, 7:04am

Thu Jan 21, 6:04am

Thu Jan 21, 5:04am

Thu Jan 21, 4:04am

Thu Jan 21, 3:04am

Thu Jan 21, 2:04am

Thu Jan 21, 1:04am

Thu Jan 21, 12:04am

Wed Jan 20, 11:04pm

Wed Jan 20, 10:05pm

Wed Jan 20, 9:04pm

Wed Jan 20, 8:04pm

Wed Jan 20, 7:04pm

Wed Jan 20, 6:05pm

Wed Jan 20, 5:05pm

Wed Jan 20, 1:04pm

Wed Jan 20, 12:04pm

Wed Jan 20, 11:04am

Wed Jan 20, 10:04am

Wed Jan 20, 9:05am

Wed Jan 20, 8:04am

Wed Jan 20, 7:04am

Wed Jan 20, 6:04am

Wed Jan 20, 5:04am

Wed Jan 20, 4:04am

Wed Jan 20, 3:05am

Wed Jan 20, 2:04am

Wed Jan 20, 1:04am

Wed Jan 20, 12:04am

Tue Jan 19, 11:04pm

Tue Jan 19, 10:04pm

Tue Jan 19, 9:04pm

Tue Jan 19, 8:04pm

Tue Jan 19, 7:04pm

Tue Jan 19, 6:05pm

Tue Jan 19, 5:04pm

Tue Jan 19, 4:05pm

Tue Jan 19, 3:04pm

Tue Jan 19, 2:04pm

Tue Jan 19, 1:04pm

Tue Jan 19, 12:05pm

Tue Jan 19, 11:04am

Tue Jan 19, 10:05am

Tue Jan 19, 9:04am

Tue Jan 19, 8:04am

Tue Jan 19, 7:04am

Tue Jan 19, 6:04am

Tue Jan 19, 5:04am

Tue Jan 19, 4:04am

Tue Jan 19, 3:04am

Tue Jan 19, 2:04am

Tue Jan 19, 1:04am

Tue Jan 19, 12:04am

Mon Jan 18, 11:04pm

Mon Jan 18, 10:04pm

Mon Jan 18, 9:04pm

Mon Jan 18, 8:05pm

Mon Jan 18, 7:04pm

Mon Jan 18, 6:05pm

Mon Jan 18, 5:04pm

Mon Jan 18, 4:04pm

Mon Jan 18, 3:04pm

Mon Jan 18, 2:04pm

Mon Jan 18, 1:04pm

Mon Jan 18, 12:04pm

Mon Jan 18, 11:04am

Mon Jan 18, 10:04am

Mon Jan 18, 9:04am

Mon Jan 18, 8:04am

Mon Jan 18, 7:04am

Mon Jan 18, 6:04am

Mon Jan 18, 5:04am

Mon Jan 18, 4:04am

Mon Jan 18, 3:04am

Mon Jan 18, 2:04am

Mon Jan 18, 1:04am

Mon Jan 18, 12:04am

Sun Jan 17, 11:04pm

Sun Jan 17, 10:04pm

Sun Jan 17, 9:04pm

Sun Jan 17, 8:04pm

Sun Jan 17, 7:04pm

Sun Jan 17, 6:04pm

Sun Jan 17, 5:04pm

Sun Jan 17, 4:05pm

Sun Jan 17, 3:04pm

Sun Jan 17, 2:04pm

Sun Jan 17, 1:04pm

Sun Jan 17, 12:04pm

Sun Jan 17, 11:04am

Sun Jan 17, 10:04am

Sun Jan 17, 9:04am

Sun Jan 17, 8:04am

Sun Jan 17, 7:04am

Sun Jan 17, 6:04am

Sun Jan 17, 5:04am

Sun Jan 17, 4:04am

Sun Jan 17, 3:04am

Sun Jan 17, 2:04am

Sun Jan 17, 1:04am

Sun Jan 17, 12:04am

Sat Jan 16, 11:05pm

Sat Jan 16, 10:04pm

Sat Jan 16, 9:04pm

Sat Jan 16, 8:05pm

Sat Jan 16, 7:04pm

Sat Jan 16, 6:04pm

Sat Jan 16, 5:05pm

Sat Jan 16, 4:05pm

Sat Jan 16, 3:05pm

Sat Jan 16, 2:04pm

Sat Jan 16, 1:04pm

Sat Jan 16, 12:04pm

Sat Jan 16, 11:04am

Sat Jan 16, 10:05am

Sat Jan 16, 9:04am

Sat Jan 16, 8:04am

Sat Jan 16, 7:04am

Sat Jan 16, 6:04am

Sat Jan 16, 5:04am

Sat Jan 16, 4:04am

Sat Jan 16, 3:05am

Sat Jan 16, 2:04am

Sat Jan 16, 1:04am

Sat Jan 16, 12:05am

Fri Jan 15, 11:05pm

Fri Jan 15, 10:04pm

Fri Jan 15, 9:04pm

Fri Jan 15, 8:04pm

Fri Jan 15, 7:05pm

Fri Jan 15, 6:05pm

Fri Jan 15, 5:05pm

Fri Jan 15, 4:05pm

Fri Jan 15, 3:04pm

Fri Jan 15, 2:05pm

Fri Jan 15, 1:04pm

Fri Jan 15, 12:05pm

Fri Jan 15, 11:04am

Fri Jan 15, 10:04am

Fri Jan 15, 9:05am

Fri Jan 15, 8:04am

Fri Jan 15, 7:04am

Fri Jan 15, 6:04am

Fri Jan 15, 5:05am

Fri Jan 15, 4:04am

Fri Jan 15, 3:04am

Fri Jan 15, 2:04am

Fri Jan 15, 1:04am

Fri Jan 15, 12:05am

Thu Jan 14, 11:04pm

Thu Jan 14, 10:04pm

Thu Jan 14, 9:04pm

Thu Jan 14, 8:05pm

Thu Jan 14, 7:04pm

Thu Jan 14, 6:04pm

Thu Jan 14, 5:04pm

Thu Jan 14, 4:05pm

Thu Jan 14, 3:04pm

Thu Jan 14, 2:04pm

Thu Jan 14, 1:04pm

Thu Jan 14, 12:05pm

Thu Jan 14, 11:05am

Thu Jan 14, 10:04am

Thu Jan 14, 8:04am

Thu Jan 14, 7:04am

Thu Jan 14, 6:04am

Thu Jan 14, 5:04am

Thu Jan 14, 4:04am

Thu Jan 14, 3:04am

Thu Jan 14, 2:04am

Thu Jan 14, 1:04am

Thu Jan 14, 12:04am

Wed Jan 13, 11:04pm

Wed Jan 13, 10:04pm

Wed Jan 13, 9:04pm

Wed Jan 13, 8:05pm

Wed Jan 13, 7:04pm

Wed Jan 13, 6:04pm

Wed Jan 13, 5:04pm

Wed Jan 13, 4:04pm

Wed Jan 13, 3:05pm

Wed Jan 13, 2:04pm

Wed Jan 13, 1:04pm

Wed Jan 13, 12:04pm

Wed Jan 13, 11:04am

Wed Jan 13, 10:04am

Wed Jan 13, 9:05am

Wed Jan 13, 8:04am

Wed Jan 13, 7:04am

Wed Jan 13, 6:04am

Wed Jan 13, 5:04am

Wed Jan 13, 4:04am

Wed Jan 13, 3:04am

Wed Jan 13, 2:04am

Wed Jan 13, 1:04am

Wed Jan 13, 12:05am

Tue Jan 12, 11:04pm

Tue Jan 12, 10:04pm

Tue Jan 12, 9:04pm

Tue Jan 12, 8:05pm

Tue Jan 12, 7:04pm

Meta data:

ID: 468a31dc-5dca-4415-acd9-b83e1201f16c
Link: https://api.weather.gov/products/468a31dc-5dca-4415-acd9-b83e1201f16c